Wind_Speed
33 33 33 32 31 29 28 27 26 24 22 19 18 18 17 16 14 13 13 12 13 13 13 14 13 12 12 12 12 12 11 11 11 11 11 12 12 12 12 13 13 13 13 13
34 33 34 34 33 32 30 28 27 26 24 21 20 19 18 17 16 15 14 14 14 15 15 15 14 13 13 13 13 13 13 12 13 13 13 13 13 13 13 14 13 13 13 14
35 33 34 35 34 33 32 30 29 28 26 24 23 21 20 19 19 18 17 17 17 17 16 16 15 15 15 15 14 15 14 14 14 14 14 14 14 14 14 14 15 15 15 15
35 34 35 34 34 34 34 33 32 30 29 26 24 24 23 22 21 19 19 19 19 19 18 17 17 16 17 16 16 17 16 15 16 15 14 15 15 15 16 15 16 17 17 17
37 36 36 34 34 34 34 34 33 32 30 28 26 25 25 23 22 21 21 21 21 21 20 19 19 19 19 19 19 19 17 16 17 16 15 16 16 16 16 17 18 18 18 18
40 39 39 37 36 35 35 35 33 33 32 31 30 28 26 25 25 24 24 23 24 23 22 22 21 21 21 21 21 21 20 18 18 17 17 17 18 18 18 18 19 19 19 19
42 41 41 40 39 38 38 37 35 35 34 34 33 32 30 29 28 28 27 27 26 26 26 25 24 24 24 24 23 22 22 20 19 20 20 20 20 20 20 20 20 20 21 21
44 44 44 42 41 40 40 39 38 37 36 36 36 35 33 32 31 31 30 29 29 29 29 28 28 28 27 27 27 26 25 24 23 23 23 23 23 23 23 23 23 23 23 23
46 46 45 44 43 42 41 41 40 39 38 37 37 37 36 36 35 35 33 32 31 32 32 31 31 30 30 30 30 29 28 28 27 26 26 26 27 27 26 26 26 25 25 25
48 47 46 45 43 42 41 41 41 40 39 39 38 38 37 37 37 36 35 35 34 34 33 33 33 32 33 33 33 32 32 31 30 30 29 29 29 29 29 28 28 27 27 27
49 49 47 46 45 43 42 41 41 40 39 39 38 38 38 38 38 38 37 38 37 37 36 36 36 35 35 35 35 35 35 34 33 33 32 31 31 31 31 31 30 30 29 29
46 47 47 46 45 44 42 41 41 41 40 40 40 40 39 39 39 39 39 40 39 38 38 38 38 37 37 37 37 36 36 35 34 33 33 33 32 32 32 32 31 31 31 31
44 45 45 45 44 44 43 42 42 42 41 41 41 41 40 40 41 42 41 41 40 39 40 40 40 40 39 38 39 39 39 37 35 34 34 34 34 33 33 32 32 32 32 32
43 43 44 44 44 43 42 41 41 41 41 41 41 41 42 42 42 42 43 42 41 41 40 39 40 40 40 41 40 39 37 35 34 35 34 33 33 32 32 32 33 33 33 33
42 43 43 42 42 41 40 40 40 40 41 41 41 42 42 42 42 42 42 42 42 41 41 41 40 40 39 39 39 39 38 37 36 35 34 34 33 33 33 33 34 34 34 34
39 40 41 41 40 40 39 39 40 40 40 40 41 41 42 42 42 41 40 40 40 40 40 39 40 40 40 41 40 40 38 37 36 35 35 35 35 35 35 35 35 35 35 35
36 38 39 39 39 39 39 39 39 39 39 39 40 40 41 41 41 40 39 39 39 39 40 40 39 40 41 40 39 38 37 37 36 36 37 37 36 36 36 37 37 37 37 36
34 35 36 36 37 38 38 38 38 38 38 38 38 39 39 39 38 38 38 38 38 39 39 40 40 40 39 38 37 37 36 36 36 36 37 37 37 37 37 37 37 37 37 36
32 33 33 33 34 35 36 36 37 36 36 35 36 37 38 38 37 38 38 37 37 38 38 38 39 38 38 37 37 37 36 36 36 37 37 37 36 37 37 37 37 36 37 37
29 30 30 31 31 32 33 33 34 33 33 34 35 35 35 36 37 37 37 37 36 37 36 36 37 36 36 36 36 36 35 35 35 36 36 36 36 36 37 37 37 37 36 36
27 27 28 28 29 29 30 30 31 31 32 32 33 34 34 35 35 35 35 35 35 35 35 34 34 34 34 35 34 34 34 34 34 35 35 35 35 35 36 36 35 35 35 35
24 25 25 26 27 27 26 27 28 28 29 30 30 30 31 31 32 32 32 33 33 33 33 32 31 31 31 32 32 32 33 33 34 34 34 34 34 35 34 34 35 35 35 35
20 22 22 23 23 23 23 24 25 26 26 26 26 27 27 27 27 28 28 29 29 28 28 28 28 28 29 29 29 30 31 32 32 32 32 33 33 33 33 34 34 34 35 35
18 18 19 19 20 20 21 22 22 23 23 23 23 23 24 24 24 25 25 25 24 25 25 26 26 26 27 28 28 29 30 30 30 30 31 31 32 32 32 33 33 33 34 34
16 16 16 16 17 18 18 19 19 19 19 19 20 20 20 21 21 21 21 22 23 23 23 23 24 25 26 27 27 27 28 28 28 29 29 29 30 31 31 31 32 33 33 33
11 12 13 13 14 14 14 14 14 14 16 17 17 18 18 18 18 18 18 20 20 20 21 22 22 22 23 24 24 25 26 26 26 26 27 28 28 29 29 30 31 32 32 32
8 8 9 10 11 11 11 12 13 13 14 14 15 15 16 16 16 16 16 16 17 17 18 19 20 20 21 22 22 23 24 24 26 27 27 27 28 28 29 29 30 31 31 32
Wind_Direction
232 231 232 236 238 241 245 250 255 260 264 267 265 265 266 270 274 279 289 300 310 314 320 323 325 326 328 329 328 326 322 320 320 321 321 322 322 318 318 320 317 313 307 307
233 232 232 234 237 240 243 249 253 257 261 263 262 263 265 268 271 277 283 289 298 306 310 315 318 320 320 323 324 322 318 317 318 317 318 318 319 319 320 321 318 315 311 308
235 233 233 234 237 240 243 247 251 255 260 264 262 264 266 267 271 274 277 284 291 297 303 305 310 311 315 311 312 313 313 312 314 314 314 316 314 315 316 316 317 315 312 309
237 236 235 237 238 240 242 246 249 253 258 262 263 263 265 266 268 271 276 282 287 291 295 298 301 302 303 305 305 308 309 306 308 308 308 311 312 312 313 312 313 313 310 309
238 239 240 239 240 240 242 245 248 252 256 258 260 262 264 267 268 269 273 277 281 285 289 290 293 296 297 296 297 303 304 302 302 305 306 307 309 310 311 312 312 311 309 307
239 241 242 242 243 243 245 247 249 251 253 255 257 259 261 264 267 269 271 274 277 280 284 287 288 290 293 292 293 297 297 300 301 304 306 306 306 306 307 308 309 309 307 306
238 241 243 243 243 245 247 249 251 253 253 254 255 257 259 261 264 266 267 270 274 277 281 284 284 285 287 288 289 292 296 298 297 299 301 303 303 303 303 304 306 306 305 305
238 241 243 244 246 247 250 252 253 254 254 254 255 257 258 259 262 263 265 268 270 274 277 279 281 283 283 283 285 288 290 291 292 293 295 298 300 300 299 300 302 303 303 303
239 242 244 246 248 250 251 252 253 255 256 255 256 256 257 258 260 261 263 267 269 271 272 273 277 279 281 280 280 285 287 286 287 289 290 293 295 296 296 297 298 299 300 300
240 242 244 247 248 250 251 252 253 255 256 256 257 257 257 257 258 258 259 264 268 268 268 271 272 274 277 278 279 281 286 287 286 287 288 290 291 293 294 294 295 295 296 297
240 242 244 246 247 249 251 253 253 254 256 257 256 257 256 257 258 256 259 262 265 267 268 272 273 273 275 276 277 279 284 284 285 288 289 287 289 292 292 291 292 293 294 294
241 242 244 245 247 249 251 252 254 255 256 257 257 257 257 258 258 259 260 262 264 265 267 270 271 271 273 275 276 278 280 279 281 283 285 285 286 289 290 289 290 291 292 293
240 242 244 246 247 249 250 252 253 254 256 256 257 256 257 258 259 259 260 262 263 265 267 270 271 271 272 273 276 277 277 278 278 282 284 284 285 287 287 287 288 289 291 292
239 242 244 246 248 250 251 251 253 254 255 256 257 257 258 261 262 260 260 262 264 266 267 269 270 271 272 272 275 277 276 277 280 282 284 285 286 287 288 289 289 289 290 291
239 241 243 245 248 250 251 252 254 255 254 256 257 259 259 261 262 262 262 264 265 266 267 268 269 271 272 273 274 277 279 280 281 283 284 284 285 286 288 289 289 289 290 290
241 243 244 246 249 251 253 254 255 256 257 258 258 259 259 260 261 261 262 263 264 264 267 269 270 271 273 274 275 277 278 279 280 281 281 282 283 285 286 288 289 290 291 291
242 244 246 248 251 253 254 255 255 256 258 259 259 259 260 261 262 263 264 263 265 267 267 269 271 272 273 274 275 275 276 278 279 279 279 280 282 283 284 286 287 289 290 291
243 245 247 250 252 253 254 255 256 256 257 257 258 259 261 263 264 265 267 267 268 269 270 270 271 272 273 273 274 274 275 276 276 276 277 278 280 282 284 285 286 288 288 289
244 246 248 250 252 254 255 256 256 257 257 257 258 259 261 263 265 267 268 269 270 271 272 273 274 274 274 274 274 274 274 273 274 274 276 277 279 281 283 284 286 287 288 288
243 246 248 250 252 254 255 255 256 257 258 260 261 262 263 265 266 268 270 271 271 272 273 274 274 275 274 273 273 274 274 274 274 274 275 276 279 281 282 283 284 285 286 287
244 246 247 249 251 253 255 256 257 259 260 262 263 264 266 267 268 269 269 270 271 273 273 273 273 272 272 272 272 272 273 274 274 275 276 277 279 280 281 282 282 284 286 287
244 245 246 249 252 253 255 256 257 259 260 261 264 265 266 268 268 268 269 269 270 271 272 271 272 272 271 271 270 271 272 273 274 276 277 278 279 281 281 281 283 285 286 286
248 248 248 249 250 251 254 255 256 258 259 261 264 266 267 270 270 269 269 269 269 269 270 271 271 271 271 271 272 272 272 273 275 277 278 279 280 280 281 283 284 285 286 287
249 248 247 248 250 251 253 254 256 258 259 261 264 266 267 269 270 271 270 270 270 269 269 269 270 270 271 272 273 275 275 275 276 278 279 280 281 282 284 285 285 285 286 287
242 242 243 246 248 250 253 255 256 256 257 260 263 265 267 269 270 271 271 270 270 269 267 268 270 271 272 272 274 276 277 276 275 276 278 280 282 284 285 286 286 286 287 288
240 242 244 246 249 252 254 255 257 257 259 263 265 266 267 268 269 269 269 268 267 266 267 269 271 272 274 274 276 277 277 276 276 278 280 282 284 285 285 286 286 287 287 287
240 244 246 249 251 252 253 254 256 258 262 266 267 267 267 268 269 269 270 269 269 271 272 272 271 274 277 278 278 278 279 280 282 283 285 286 286 286 287 288 289 288 290 290
Height
5868 5871 5874 5877 5880 5883 5885 5887 5889 5892 5893 5896 5897 5898 5899 5899 5900 5900 5900 5899 5899 5897 5896 5894 5892 5891 5890 5888 5887 5886 5884 5883 5881 5879 5878 5876 5874 5872 5870 5868 5866 5865 5863 5862
5861 5864 5867 5870 5874 5877 5880 5882 5884 5886 5888 5890 5891 5893 5894 5895 5896 5896 5896 5896 5896 5895 5893 5892 5890 5889 5888 5887 5885 5883 5882 5880 5879 5877 5875 5873 5872 5870 5868 5866 5864 5862 5861 5859
5854 5858 5860 5864 5868 5871 5874 5876 5879 5881 5884 5885 5886 5888 5890 5891 5891 5892 5892 5892 5892 5891 5890 5889 5887 5886 5885 5883 5882 5881 5879 5877 5876 5874 5872 5871 5869 5867 5865 5863 5861 5859 5858 5856
5846 5851 5853 5860 5862 5864 5867 5870 5872 5875 5877 5879 5881 5883 5884 5886 5886 5887 5888 5888 5887 5887 5886 5885 5884 5883 5881 5880 5879 5877 5875 5874 5873 5871 5869 5868 5866 5864 5862 5860 5858 5856 5855 5853
5838 5842 5846 5851 5854 5857 5860 5863 5866 5869 5871 5873 5875 5877 5879 5880 5881 5881 5882 5883 5883 5882 5881 5880 5879 5878 5877 5876 5875 5873 5871 5870 5869 5867 5866 5864 5862 5860 5859 5857 5855 5853 5851 5849
5830 5834 5838 5844 5847 5849 5854 5856 5859 5861 5864 5866 5868 5871 5873 5874 5874 5875 5876 5876 5877 5877 5876 5875 5874 5873 5872 5871 5870 5869 5867 5866 5865 5863 5862 5860 5858 5857 5855 5853 5851 5849 5847 5845
5821 5824 5828 5834 5838 5842 5846 5849 5852 5854 5856 5859 5861 5864 5866 5866 5867 5868 5868 5869 5870 5870 5870 5869 5868 5868 5867 5866 5865 5863 5862 5861 5860 5859 5857 5856 5854 5852 5850 5849 5847 5845 5843 5840
5811 5816 5821 5825 5829 5834 5837 5840 5842 5845 5848 5850 5852 5855 5856 5858 5859 5860 5860 5861 5862 5862 5863 5862 5862 5861 5860 5860 5859 5857 5856 5855 5855 5853 5852 5850 5848 5847 5845 5843 5842 5839 5837 5835
5802 5807 5811 5816 5820 5824 5827 5830 5833 5836 5839 5841 5843 5845 5847 5849 5850 5851 5852 5853 5854 5854 5854 5854 5854 5853 5853 5852 5851 5850 5849 5848 5848 5846 5845 5843 5842 5840 5839 5837 5835 5833 5831 5829
5792 5796 5801 5806 5810 5814 5817 5821 5823 5826 5829 5831 5833 5835 5837 5839 5840 5841 5843 5844 5844 5845 5845 5845 5845 5845 5844 5843 5843 5843 5842 5841 5839 5838 5837 5836 5834 5833 5831 5830 5828 5826 5824 5822
5781 5786 5791 5795 5800 5804 5807 5811 5814 5816 5819 5821 5823 5825 5827 5829 5830 5831 5832 5834 5835 5835 5836 5836 5836 5836 5835 5834 5833 5833 5833 5832 5830 5829 5828 5827 5826 5825 5823 5822 5820 5818 5816 5814
5772 5777 5781 5786 5790 5794 5797 5801 5804 5806 5809 5811 5813 5815 5817 5819 5819 5820 5822 5824 5825 5825 5825 5826 5826 5825 5825 5825 5824 5823 5823 5822 5821 5820 5819 5818 5817 5815 5814 5812 5811 5809 5807 5806
5761 5766 5771 5776 5780 5784 5787 5791 5793 5796 5799 5801 5803 5805 5806 5808 5809 5810 5811 5812 5813 5814 5815 5815 5815 5815 5814 5814 5814 5813 5813 5812 5812 5811 5810 5808 5807 5806 5805 5803 5802 5800 5798 5796
5751 5756 5761 5766 5770 5774 5777 5780 5783 5785 5788 5791 5793 5795 5796 5798 5798 5799 5800 5801 5802 5803 5804 5804 5804 5804 5804 5804 5803 5803 5803 5802 5802 5801 5800 5799 5798 5797 5795 5794 5793 5791 5789 5787
5742 5746 5751 5756 5760 5764 5767 5770 5773 5776 5778 5780 5782 5784 5786 5787 5788 5789 5789 5790 5791 5792 5793 5793 5794 5794 5793 5793 5793 5793 5793 5792 5792 5791 5790 5789 5788 5787 5786 5785 5783 5781 5779 5777
5734 5738 5742 5747 5750 5754 5757 5760 5763 5765 5767 5769 5771 5773 5774 5776 5777 5777 5778 5779 5779 5780 5781 5782 5783 5783 5783 5783 5782 5782 5782 5782 5780 5780 5780 5779 5778 5777 5776 5775 5773 5771 5769 5767
5726 5730 5734 5737 5741 5744 5747 5750 5753 5755 5757 5759 5760 5762 5763 5765 5766 5767 5767 5767 5768 5770 5771 5772 5772 5772 5772 5771 5770 5771 5771 5771 5770 5769 5769 5769 5768 5767 5766 5764 5762 5761 5759 5756
5718 5721 5725 5728 5732 5735 5737 5740 5742 5744 5746 5748 5749 5751 5753 5754 5755 5756 5756 5756 5757 5758 5759 5760 5760 5761 5760 5759 5759 5759 5759 5759 5759 5759 5758 5758 5757 5756 5755 5753 5751 5749 5747 5746
5711 5714 5717 5720 5722 5725 5728 5730 5732 5734 5735 5737 5738 5740 5742 5743 5744 5745 5745 5746 5746 5747 5747 5747 5748 5748 5748 5748 5748 5748 5748 5748 5748 5748 5747 5746 5745 5745 5743 5742 5740 5738 5737 5735
5703 5706 5709 5711 5714 5716 5718 5720 5722 5724 5725 5727 5728 5730 5731 5732 5733 5734 5735 5735 5735 5736 5736 5736 5736 5736 5737 5737 5737 5737 5737 5737 5737 5736 5736 5735 5734 5733 5732 5731 5729 5727 5725 5723
5697 5699 5701 5704 5706 5708 5709 5711 5713 5715 5716 5718 5719 5720 5721 5722 5723 5723 5724 5725 5725 5725 5725 5725 5726 5726 5726 5726 5726 5726 5726 5726 5726 5725 5724 5724 5723 5722 5721 5719 5718 5716 5714 5712
5690 5692 5694 5696 5698 5700 5701 5703 5705 5706 5708 5709 5710 5711 5712 5713 5713 5713 5713 5714 5714 5714 5715 5715 5715 5715 5715 5715 5715 5715 5715 5715 5715 5715 5714 5713 5712 5711 5710 5708 5707 5705 5703 5701
5684 5686 5687 5689 5691 5692 5694 5695 5697 5698 5699 5701 5701 5702 5703 5703 5704 5704 5704 5704 5704 5705 5705 5705 5705 5706 5706 5706 5705 5705 5705 5705 5705 5704 5703 5702 5701 5700 5699 5697 5696 5694 5693 5691
5679 5680 5681 5683 5684 5686 5687 5689 5690 5691 5692 5693 5694 5695 5695 5695 5695 5695 5695 5696 5696 5696 5697 5697 5697 5697 5697 5697 5696 5696 5696 5695 5694 5694 5693 5692 5691 5690 5688 5687 5685 5684 5682 5680
5674 5675 5677 5678 5679 5681 5682 5683 5684 5685 5686 5687 5687 5688 5688 5688 5688 5688 5688 5689 5689 5689 5689 5689 5689 5689 5688 5688 5687 5687 5686 5686 5685 5684 5683 5682 5681 5680 5678 5677 5675 5673 5671 5669
5670 5672 5672 5673 5675 5676 5677 5678 5679 5680 5680 5681 5682 5682 5682 5682 5683 5683 5683 5683 5682 5682 5682 5682 5682 5681 5680 5680 5679 5679 5678 5677 5677 5676 5675 5673 5672 5671 5669 5667 5666 5663 5661 5659
5668 5669 5670 5671 5671 5672 5673 5674 5675 5676 5676 5677 5677 5677 5677 5677 5677 5677 5677 5677 5677 5677 5676 5676 5675 5675 5674 5673 5672 5671 5670 5669 5669 5668 5666 5665 5663 5662 5660 5658 5656 5654 5652 5649